Location: Newark
(35.2672°N, 80.7344°W)
Time: 14:35:57
(UTC+00:00)

Vanguard 1 - Pass Details

Date: 26 January 2020
Orbit: 649 x 3834 km, 34.3° (Epoch: 28 February)

Event Time Altitude Azimuth Distance (km) Brightness Sun altitude
Rises 00:12:06 0° 272° (W) 2,958 14.1 -18.1°
Reaches altitude 10° 00:14:11 10° 271° (W) 2,097 13.0 -18.5°
Maximum altitude 00:18:45 80° 184° (S) 813 9.6 -19.4°
Enters shadow 00:21:28 33° 102° (ESE) 1,485 10.5 -20.0°
